Home   Weather   Minot   Past weeks
Flag for USA

Past Weather in Minot, North Dakota, USA — Yesterday and Last 2 Weeks

Now
56 °F

Light rain. Mostly cloudy.


Feels Like: 53 °F
Forecast: 67 / 55 °F
Wind: 12 mph from Southeast

Location: Minot International Airport

Current Time: Jun 20, 2019 at 6:38:33 am

Latest Report: Jun 20, 2019 at 6:03 am


Visibility: 7 mi

Pressure: 29.70 "Hg

Humidity: 90%

Dew Point: 53 °F

Location of MinotLocation

Past Weather in Minot — Graph

°F

Minot Temperature Yesterday

Maximum temperature yesterday: 76 °F (at 2:54 pm)
Minimum temperature yesterday: 52 °F (at 4:54 am)
Average temperature yesterday: 64 °F

High & Low Weather Summary for the Past Weeks

 TemperatureHumidityPressure
High89 °F (Jun 7, 4:54 pm)93% (Jun 14, 10:20 pm)30.23 "Hg (Jun 14, 10:20 pm)
Low45 °F (Jun 10, 5:54 am)16% (Jun 5, 7:54 pm)29.48 "Hg (Jun 7, 9:54 am)
Average64 °F58%29.88 "Hg
* Reported Jun 5 4:54 am — Jun 20 4:54 am, Minot. Weather by CustomWeather, © 2019

Note: Actual official high and low records may vary slightly from our data, if they occured in-between our weather recording intervals... More about our weather records

Advertising

Minot Weather History for the Previous 24 Hours

Scroll right to see more
 ConditionsComfort  
Time TempWeatherWind HumidityBarometerVisibility
4:54 am
Thu, Jun 20
56 °FOvercast.6 mph84%29.69 "Hg10 mi
3:54 am56 °FMostly cloudy.6 mph84%29.70 "Hg10 mi
2:54 am58 °FMostly cloudy.7 mph78%29.70 "Hg10 mi
1:54 am58 °FOvercast.5 mph78%29.70 "Hg10 mi
12:54 am58 °FOvercast.8 mph78%29.70 "Hg10 mi
11:54 pm
Wed, Jun 19
58 °FPassing clouds.10 mph78%29.72 "Hg10 mi
10:54 pm60 °FClear.7 mph69%29.73 "Hg10 mi
9:54 pm62 °FClear.13 mph62%29.70 "Hg10 mi
8:54 pm65 °FSunny.15 mph52%29.70 "Hg10 mi
7:54 pm68 °FSunny.16 mph47%29.72 "Hg10 mi
6:54 pm72 °FScattered clouds.16 mph40%29.72 "Hg10 mi
5:54 pm74 °FScattered clouds.18 mph35%29.72 "Hg10 mi
4:54 pm74 °FSunny.16 mph35%29.73 "Hg10 mi
3:54 pm75 °FSunny.17 mph36%29.75 "Hg10 mi
2:54 pm76 °FPassing clouds.20 mph32%29.77 "Hg10 mi
1:54 pm74 °FBroken clouds.18 mph40%29.78 "Hg10 mi
12:54 pm73 °FScattered clouds.16 mph41%29.79 "Hg10 mi
11:54 am70 °FOvercast.17 mph47%29.80 "Hg10 mi
10:54 am68 °FPartly sunny.12 mph57%29.80 "Hg10 mi
9:54 am64 °FScattered clouds.9 mph68%29.82 "Hg10 mi
8:54 am62 °FSunny.3 mph70%29.83 "Hg10 mi
7:54 am58 °FSunny.6 mph81%29.82 "Hg10 mi
6:54 am56 °FPartly sunny.7 mph81%29.83 "Hg10 mi
Weather by CustomWeather, © 2019

See weather overview